DNAK

Akure Airport

Airport
ICAO code
DNAK
IATA Code
AKR
Summary
ICAO Region
AFI
ICAO Territory
Location

Saribi, Ondo State

Serving
Akure
Elevation
1108 ft
Coordinates
7° 14' 55" N , 5° 18' 5" E
KCC
Metar
Observation
DNAK 281500Z 12004KT 9999 BKN015 32/20 Q1007
Station
Akure Airport
Date/Time
2022-11-28 15:00:00
Wind direction
120°
Wind speed
04 kts
Lowest cloud amount
broken clouds
Temperature
32°C
Dew point
20°C
Humidity
49%
QNH
1007 hPa
Weather condition
n/a

Akure Airport is an airport serving Akure, the capital of Ondo State, Nigeria.

Climatology

Tropical savanna climate (Köppen climate classification Aw)

Runways

Designator Length Width Surface Rops
3/21 2803 45 ASP No/No

Airport map

Aerial View

SKYbrary Partners:

Safety knowledge contributed by: